| time (UTC) | temp F | wind direction | speed MPH | gust MPH | rain 1hr in | rain 24hr in | rain mn in | humidity % | barometer mb |
| 20260901204441 | 101 | 85 | 6.0 | 13.0 | 0.00 | 0.00 | 0.00 | 40 | 1012.0 |
| 20260901203942 | 101 | 94 | 8.0 | 13.0 | 0.00 | 0.00 | 0.00 | 40 | 1012.2 |
| 20260901202942 | 100 | 181 | 4.0 | 15.0 | 0.00 | 0.00 | 0.00 | 42 | 1012.2 |
| 20260901202442 | 100 | 165 | 9.0 | 15.0 | 0.00 | 0.00 | 0.00 | 41 | 1012.3 |
| 20260901201942 | 102 | 182 | 7.0 | 14.0 | 0.00 | 0.00 | 0.00 | 40 | 1012.1 |
| 20260901201444 | 101 | 89 | 3.0 | 9.0 | 0.00 | 0.00 | 0.00 | 40 | 1012.5 |
| 20260901200942 | 101 | 87 | 5.0 | 9.0 | 0.00 | 0.00 | 0.00 | 41 | 1012.5 |
| 20260901195943 | 99 | 96 | 3.0 | 10.0 | 0.00 | 0.00 | 0.00 | 43 | 1012.7 |
| 20260901195442 | 99 | 113 | 3.0 | 12.0 | 0.00 | 0.00 | 0.00 | 43 | 1012.7 |
| 20260901194442 | 99 | 127 | 5.0 | 12.0 | 0.00 | 0.00 | 0.00 | 43 | 1012.8 |
| 20260901193442 | 99 | 133 | 3.0 | 18.0 | 0.00 | 0.00 | 0.00 | 44 | 1012.9 |
| 20260901192942 | 99 | 177 | 6.0 | 12.0 | 0.00 | 0.00 | 0.00 | 43 | 1012.9 |
| 20260901192442 | 99 | 117 | 3.0 | 10.0 | 0.00 | 0.00 | 0.00 | 44 | 1013.0 |
| 20260901191442 | 97 | 185 | 8.0 | 20.0 | 0.00 | 0.00 | 0.00 | 45 | 1013.2 |
| 20260901190943 | 96 | 181 | 10.0 | 18.0 | 0.00 | 0.00 | 0.00 | 46 | 1013.2 |
| 20260901190442 | 96 | 200 | 11.0 | 17.0 | 0.00 | 0.00 | 0.00 | 46 | 1013.3 |
| 20260901185942 | 97 | 170 | 7.0 | 16.0 | 0.00 | 0.00 | 0.00 | 45 | 1013.4 |
| 20260901185442 | 98 | 137 | 3.0 | 16.0 | 0.00 | 0.00 | 0.00 | 44 | 1013.5 |
| 20260901184942 | 98 | 95 | 7.0 | 16.0 | 0.00 | 0.00 | 0.00 | 44 | 1013.6 |
| 20260901184443 | 98 | 100 | 5.0 | 16.0 | 0.00 | 0.00 | 0.00 | 44 | 1013.6 |
| 20260901183943 | 98 | 103 | 4.0 | 17.0 | 0.00 | 0.00 | 0.00 | 44 | 1013.8 |
| 20260901183443 | 97 | 133 | 9.0 | 17.0 | 0.00 | 0.00 | 0.00 | 44 | 1013.9 |
| 20260901182942 | 97 | 123 | 2.0 | 12.0 | 0.00 | 0.00 | 0.00 | 45 | 1013.9 |
| 20260901181943 | 95 | 153 | 5.0 | 20.0 | 0.00 | 0.00 | 0.00 | 48 | 1014.1 |
| 20260901181443 | 95 | 127 | 11.0 | 20.0 | 0.00 | 0.00 | 0.00 | 48 | 1014.1 |
| 20260901180943 | 95 | 106 | 5.0 | 15.0 | 0.00 | 0.00 | 0.00 | 48 | 1014.2 |
| 20260901180443 | 96 | 195 | 9.0 | 14.0 | 0.00 | 0.00 | 0.00 | 47 | 1014.3 |
| 20260901175943 | 97 | 205 | 7.0 | 12.0 | 0.00 | 0.00 | 0.00 | 46 | 1014.3 |
| 20260901174943 | 96 | 90 | 3.0 | 16.0 | 0.00 | 0.00 | 0.00 | 48 | 1014.4 |
| 20260901174443 | 96 | 137 | 7.0 | 16.0 | 0.00 | 0.00 | 0.00 | 47 | 1014.6 |
| 20260901173943 | 95 | 160 | 5.0 | 16.0 | 0.00 | 0.00 | 0.00 | 48 | 1014.6 |
| 20260901173443 | 95 | 148 | 9.0 | 13.0 | 0.00 | 0.00 | 0.00 | 48 | 1014.8 |
| 20260901172943 | 95 | 204 | 3.0 | 13.0 | 0.00 | 0.00 | 0.00 | 49 | 1014.7 |
| 20260901171943 | 95 | 214 | 6.0 | 10.0 | 0.00 | 0.00 | 0.00 | 49 | 1014.9 |
| 20260901171443 | 96 | 153 | 5.0 | 10.0 | 0.00 | 0.00 | 0.00 | 49 | 1015.0 |
| 20260901170943 | 96 | 116 | 5.0 | 9.0 | 0.00 | 0.00 | 0.00 | 48 | 1015.0 |
| 20260901165443 | 95 | 108 | 5.0 | 10.0 | 0.00 | 0.00 | 0.00 | 52 | 1015.2 |
| 20260901164943 | 94 | 131 | 4.0 | 10.0 | 0.00 | 0.00 | 0.00 | 52 | 1015.3 |
| 20260901164444 | 94 | 189 | 6.0 | 14.0 | 0.00 | 0.00 | 0.00 | 52 | 1015.4 |
| 20260901163943 | 94 | 170 | 7.0 | 15.0 | 0.00 | 0.00 | 0.00 | 52 | 1015.4 |
| 20260901163444 | 93 | 87 | 5.0 | 15.0 | 0.00 | 0.00 | 0.00 | 54 | 1015.3 |
| 20260901162943 | 94 | 175 | 7.0 | 13.0 | 0.00 | 0.00 | 0.00 | 53 | 1015.3 |
| 20260901162444 | 94 | 109 | 2.0 | 13.0 | 0.00 | 0.00 | 0.00 | 54 | 1015.3 |
| 20260901161943 | 93 | 138 | 1.0 | 13.0 | 0.00 | 0.00 | 0.00 | 54 | 1015.4 |
| 20260901161444 | 93 | 160 | 9.0 | 12.0 | 0.00 | 0.00 | 0.00 | 54 | 1015.3 |
| 20260901160943 | 93 | 152 | 5.0 | 8.0 | 0.00 | 0.00 | 0.00 | 56 | 1015.4 |
| 20260901160444 | 92 | 212 | 3.0 | 10.0 | 0.00 | 0.00 | 0.00 | 56 | 1015.4 |
| 20260901155445 | 93 | 196 | 5.0 | 9.0 | 0.00 | 0.00 | 0.00 | 55 | 1015.4 |
| 20260901154944 | 93 | 79 | 2.0 | 8.0 | 0.00 | 0.00 | 0.00 | 56 | 1015.4 |
| 20260901154443 | 92 | 186 | 4.0 | 8.0 | 0.00 | 0.00 | 0.00 | 57 | 1015.3 |
| 20260901153443 | 91 | 103 | 2.0 | 8.0 | 0.00 | 0.00 | 0.00 | 58 | 1015.3 |
| 20260901152944 | 91 | 167 | 4.0 | 8.0 | 0.00 | 0.00 | 0.00 | 58 | 1015.2 |
| 20260901152444 | 91 | 109 | 1.0 | 8.0 | 0.00 | 0.00 | 0.00 | 60 | 1015.3 |
| 20260901151944 | 91 | 141 | 5.0 | 12.0 | 0.00 | 0.00 | 0.00 | 59 | 1015.3 |
| 20260901151444 | 90 | 99 | 3.0 | 12.0 | 0.00 | 0.00 | 0.00 | 62 | 1015.4 |
| 20260901150944 | 89 | 131 | 3.0 | 12.0 | 0.00 | 0.00 | 0.00 | 62 | 1015.3 |
| 20260901150444 | 89 | 113 | 6.0 | 12.0 | 0.00 | 0.00 | 0.00 | 63 | 1015.4 |
| 20260901145444 | 88 | 130 | 5.0 | 10.0 | 0.00 | 0.00 | 0.00 | 64 | 1015.5 |
| 20260901144445 | 88 | 135 | 5.0 | 9.0 | 0.00 | 0.00 | 0.00 | 64 | 1015.5 |
| 20260901143944 | 87 | 147 | 3.0 | 9.0 | 0.00 | 0.00 | 0.00 | 65 | 1015.4 |
| 20260901142944 | 87 | 152 | 5.0 | 9.0 | 0.00 | 0.00 | 0.00 | 65 | 1015.6 |
| 20260901142444 | 87 | 152 | 5.0 | 8.0 | 0.00 | 0.00 | 0.00 | 65 | 1015.5 |
| 20260901141944 | 87 | 144 | 6.0 | 10.0 | 0.00 | 0.00 | 0.00 | 65 | 1015.6 |
| 20260901140944 | 87 | 144 | 5.0 | 9.0 | 0.00 | 0.00 | 0.00 | 66 | 1015.7 |
| 20260901140445 | 87 | 199 | 5.0 | 7.0 | 0.00 | 0.00 | 0.00 | 66 | 1015.5 |
| 20260901135946 | 86 | 126 | 5.0 | 8.0 | 0.00 | 0.00 | 0.00 | 68 | 1015.6 |
| 20260901135445 | 85 | 147 | 5.0 | 12.0 | 0.00 | 0.00 | 0.00 | 69 | 1015.5 |
| 20260901134944 | 85 | 120 | 5.0 | 12.0 | 0.00 | 0.00 | 0.00 | 70 | 1015.5 |
| 20260901133945 | 84 | 166 | 5.0 | 6.0 | 0.00 | 0.00 | 0.00 | 71 | 1015.4 |
| 20260901133446 | 84 | 155 | 3.0 | 6.0 | 0.00 | 0.00 | 0.00 | 72 | 1015.5 |
| 20260901132945 | 83 | 124 | 2.0 | 5.0 | 0.00 | 0.00 | 0.00 | 72 | 1015.4 |
| 20260901132444 | 83 | 135 | 1.0 | 3.0 | 0.00 | 0.00 | 0.00 | 73 | 1015.4 |
| 20260901131946 | 82 | 170 | 0.0 | 3.0 | 0.00 | 0.00 | 0.00 | 73 | 1015.3 |
| 20260901131444 | 82 | 170 | 1.0 | 3.0 | 0.00 | 0.00 | 0.00 | 73 | 1015.3 |
| 20260901130945 | 81 | 63 | 0.0 | 1.0 | 0.00 | 0.00 | 0.00 | 74 | 1015.2 |
| 20260901130444 | 81 | 179 | 0.0 | 1.0 | 0.00 | 0.00 | 0.00 | 74 | 1015.2 |
| 20260901125945 | 81 | 179 | 0.0 | 1.0 | 0.00 | 0.00 | 0.00 | 74 | 1015.2 |
| 20260901125444 | 80 | 179 | 0.0 | 1.0 | 0.00 | 0.00 | 0.00 | 76 | 1015.1 |
| 20260901124945 | 80 | 179 | 0.0 | 1.0 | 0.00 | 0.00 | 0.00 | 74 | 1015.1 |
| 20260901124444 | 80 | 179 | 0.0 | 1.0 | 0.00 | 0.00 | 0.00 | 74 | 1015.0 |
| 20260901123945 | 80 | 179 | 0.0 | 1.0 | 0.00 | 0.00 | 0.00 | 75 | 1015.1 |
| 20260901122945 | 79 | 146 | 0.0 | 1.0 | 0.00 | 0.00 | 0.00 | 75 | 1014.8 |
| 20260901121945 | 78 | 161 | 0.0 | 0.0 | 0.00 | 0.00 | 0.00 | 76 | 1014.7 |
| 20260901121445 | 78 | 165 | 0.0 | 0.0 | 0.00 | 0.00 | 0.00 | 76 | 1014.7 |
| 20260901120946 | 78 | 165 | 0.0 | 0.0 | 0.00 | 0.00 | 0.00 | 76 | 1014.5 |
| 20260901120445 | 79 | 165 | 0.0 | 2.0 | 0.00 | 0.00 | 0.00 | 76 | 1014.6 |
| 20260901115944 | 79 | 165 | 0.0 | 3.0 | 0.00 | 0.00 | 0.00 | 75 | 1014.5 |
| 20260901114945 | 79 | 163 | 0.0 | 2.0 | 0.00 | 0.00 | 0.00 | 75 | 1014.4 |
| 20260901114445 | 79 | 163 | 1.0 | 2.0 | 0.00 | 0.00 | 0.00 | 74 | 1014.4 |
| 20260901113945 | 79 | 163 | 1.0 | 2.0 | 0.00 | 0.00 | 0.00 | 74 | 1014.5 |
| 20260901113445 | 79 | 163 | 1.0 | 3.0 | 0.00 | 0.00 | 0.00 | 74 | 1014.4 |
| 20260901112945 | 80 | 163 | 1.0 | 3.0 | 0.00 | 0.00 | 0.00 | 74 | 1014.4 |
| 20260901111945 | 80 | 163 | 1.0 | 5.0 | 0.00 | 0.00 | 0.00 | 73 | 1014.4 |
| 20260901111445 | 80 | 163 | 2.0 | 5.0 | 0.00 | 0.00 | 0.00 | 72 | 1014.3 |
| 20260901110946 | 80 | 146 | 3.0 | 5.0 | 0.00 | 0.00 | 0.00 | 71 | 1014.2 |
| 20260901110445 | 81 | 149 | 2.0 | 3.0 | 0.00 | 0.00 | 0.00 | 70 | 1014.3 |
| 20260901105945 | 82 | 165 | 2.0 | 6.0 | 0.00 | 0.00 | 0.00 | 68 | 1014.3 |
| 20260901105445 | 83 | 117 | 3.0 | 6.0 | 0.00 | 0.00 | 0.00 | 68 | 1014.3 |
| 20260901104946 | 83 | 103 | 2.0 | 6.0 | 0.00 | 0.00 | 0.00 | 67 | 1014.3 |
| 20260901104445 | 83 | 99 | 2.0 | 6.0 | 0.00 | 0.00 | 0.00 | 67 | 1014.2 |
| 20260901103946 | 83 | 102 | 3.0 | 6.0 | 0.00 | 0.00 | 0.00 | 67 | 1014.1 |
| 20260901103445 | 83 | 87 | 3.0 | 6.0 | 0.00 | 0.00 | 0.00 | 67 | 1014.2 |
| 20260901102946 | 82 | 100 | 3.0 | 6.0 | 0.00 | 0.00 | 0.00 | 67 | 1014.0 |
| 20260901102445 | 82 | 89 | 3.0 | 3.0 | 0.00 | 0.00 | 0.00 | 67 | 1014.0 |
| 20260901101945 | 82 | 113 | 2.0 | 3.0 | 0.00 | 0.00 | 0.00 | 67 | 1013.9 |
| 20260901100945 | 82 | 164 | 2.0 | 6.0 | 0.00 | 0.00 | 0.00 | 68 | 1013.8 |
| 20260901100446 | 82 | 204 | 2.0 | 7.0 | 0.00 | 0.00 | 0.00 | 68 | 1013.8 |
| 20260901095945 | 81 | 213 | 5.0 | 8.0 | 0.00 | 0.00 | 0.00 | 68 | 1013.8 |
| 20260901095446 | 81 | 219 | 4.0 | 8.0 | 0.00 | 0.00 | 0.00 | 69 | 1013.8 |
| 20260901094946 | 80 | 224 | 5.0 | 7.0 | 0.00 | 0.00 | 0.00 | 70 | 1013.9 |
| 20260901094446 | 80 | 233 | 4.0 | 6.0 | 0.00 | 0.00 | 0.00 | 71 | 1013.9 |
| 20260901093946 | 80 | 176 | 2.0 | 3.0 | 0.00 | 0.00 | 0.00 | 71 | 1014.0 |
| 20260901093446 | 80 | 161 | 2.0 | 3.0 | 0.00 | 0.00 | 0.00 | 71 | 1014.1 |
| 20260901092946 | 80 | 161 | 2.0 | 5.0 | 0.00 | 0.00 | 0.00 | 70 | 1014.1 |
| 20260901092445 | 80 | 157 | 3.0 | 5.0 | 0.00 | 0.00 | 0.00 | 70 | 1014.1 |
| 20260901091946 | 80 | 172 | 2.0 | 5.0 | 0.00 | 0.00 | 0.00 | 69 | 1014.1 |
| 20260901091446 | 80 | 175 | 2.0 | 5.0 | 0.00 | 0.00 | 0.00 | 69 | 1014.2 |
| 20260901090946 | 80 | 173 | 3.0 | 5.0 | 0.00 | 0.00 | 0.00 | 68 | 1014.2 |
| 20260901090446 | 80 | 164 | 3.0 | 3.0 | 0.00 | 0.00 | 0.00 | 68 | 1014.2 |
| 20260901085946 | 80 | 164 | 2.0 | 3.0 | 0.00 | 0.00 | 0.00 | 67 | 1014.2 |
| 20260901085446 | 81 | 164 | 2.0 | 3.0 | 0.00 | 0.00 | 0.00 | 67 | 1014.2 |
| 20260901084947 | 81 | 167 | 2.0 | 3.0 | 0.00 | 0.00 | 0.00 | 67 | 1014.1 |
| 20260901084448 | 81 | 171 | 2.0 | 3.0 | 0.00 | 0.00 | 0.00 | 66 | 1014.2 |
| 20260901083947 | 81 | 142 | 1.0 | 3.0 | 0.00 | 0.00 | 0.00 | 65 | 1014.0 |
| 20260901083446 | 82 | 160 | 2.0 | 3.0 | 0.00 | 0.00 | 0.00 | 64 | 1014.0 |
| 20260901082947 | 82 | 143 | 1.0 | 3.0 | 0.00 | 0.00 | 0.00 | 63 | 1013.9 |
| 20260901082446 | 82 | 115 | 0.0 | 2.0 | 0.00 | 0.00 | 0.00 | 63 | 1013.9 |
| 20260901081446 | 83 | 104 | 0.0 | 2.0 | 0.00 | 0.00 | 0.00 | 62 | 1013.8 |
| 20260901080947 | 83 | 113 | 0.0 | 3.0 | 0.00 | 0.00 | 0.00 | 62 | 1013.9 |
| 20260901080446 | 83 | 138 | 1.0 | 3.0 | 0.00 | 0.00 | 0.00 | 60 | 1013.8 |
| 20260901075448 | 84 | 101 | 1.0 | 3.0 | 0.00 | 0.00 | 0.00 | 59 | 1013.8 |
| 20260901073947 | 85 | 91 | 1.0 | 3.0 | 0.00 | 0.00 | 0.00 | 57 | 1013.8 |
| 20260901073446 | 85 | 116 | 2.0 | 3.0 | 0.00 | 0.00 | 0.00 | 56 | 1013.8 |
| 20260901072947 | 85 | 101 | 0.0 | 3.0 | 0.00 | 0.00 | 0.00 | 56 | 1013.9 |
| 20260901072446 | 85 | 100 | 0.0 | 3.0 | 0.00 | 0.00 | 0.00 | 57 | 1013.8 |
| 20260901071947 | 84 | 114 | 1.0 | 3.0 | 0.00 | 0.00 | 0.00 | 57 | 1013.9 |
| 20260901071446 | 84 | 104 | 2.0 | 3.0 | 0.00 | 0.00 | 0.00 | 58 | 1013.8 |
| 20260901070947 | 84 | 104 | 2.0 | 5.0 | 0.00 | 0.00 | 0.00 | 58 | 1013.8 |
| 20260901070446 | 84 | 117 | 3.0 | 6.0 | 0.00 | 0.00 | 0.00 | 58 | 1013.6 |
| 20260901065948 | 84 | 130 | 3.0 | 6.0 | 0.00 | 0.00 | 0.00 | 58 | 1013.8 |
| 20260901065447 | 84 | 117 | 3.0 | 6.0 | 0.00 | 0.00 | 0.00 | 59 | 1013.7 |
| 20260901064947 | 83 | 104 | 3.0 | 7.0 | 0.00 | 0.00 | 0.00 | 59 | 1013.7 |
| 20260901064447 | 83 | 102 | 3.0 | 7.0 | 0.00 | 0.00 | 0.00 | 60 | 1013.6 |
| 20260901063947 | 82 | 98 | 1.0 | 3.0 | 0.00 | 0.00 | 0.00 | 62 | 1013.7 |
| 20260901063447 | 81 | 115 | 0.0 | 1.0 | 0.00 | 0.00 | 0.00 | 62 | 1013.6 |
| 20260901062947 | 81 | 115 | 0.0 | 1.0 | 0.00 | 0.00 | 0.00 | 63 | 1013.7 |
| 20260901062447 | 80 | 84 | 0.0 | 1.0 | 0.00 | 0.00 | 0.00 | 67 | 1013.6 |
| 20260901061947 | 79 | 102 | 0.0 | 1.0 | 0.00 | 0.00 | 0.00 | 67 | 1013.6 |
| 20260901061449 | 79 | 53 | 0.0 | 1.0 | 0.00 | 0.00 | 0.00 | 68 | 1013.6 |
| 20260901060947 | 79 | 53 | 0.0 | 1.0 | 0.00 | 0.00 | 0.00 | 68 | 1013.6 |
| 20260901060447 | 79 | 53 | 0.0 | 0.0 | 0.00 | 0.00 | 0.00 | 66 | 1013.5 |
| 20260901055947 | 79 | 53 | 0.0 | 0.0 | 0.00 | 0.00 | 0.00 | 66 | 1013.4 |
| 20260901055447 | 79 | 53 | 0.0 | 0.0 | 0.00 | 0.00 | 0.00 | 66 | 1013.4 |
| 20260901054947 | 79 | 53 | 0.0 | 0.0 | 0.00 | 0.00 | 0.00 | 66 | 1013.3 |
| 20260901054448 | 79 | 53 | 0.0 | 1.0 | 0.00 | 0.00 | 0.00 | 65 | 1013.4 |
| 20260901053448 | 79 | 53 | 0.0 | 1.0 | 0.00 | 0.00 | 0.00 | 67 | 1013.3 |
| 20260901052947 | 78 | 53 | 0.0 | 1.0 | 0.00 | 0.00 | 0.00 | 66 | 1013.1 |
| 20260901052447 | 79 | 53 | 0.0 | 2.0 | 0.00 | 0.00 | 0.00 | 65 | 1013.1 |
| 20260901051949 | 78 | 53 | 0.0 | 2.0 | 0.00 | 0.00 | 0.00 | 65 | 1012.9 |
| 20260901051447 | 78 | 53 | 0.0 | 2.0 | 0.00 | 0.00 | 0.00 | 64 | 1013.0 |
| 20260901050950 | 78 | 53 | 1.0 | 2.0 | 0.00 | 0.00 | 0.00 | 65 | 1012.9 |
| 20260901050448 | 78 | 53 | 1.0 | 2.0 | 0.00 | 0.00 | 0.00 | 65 | 1013.0 |
| 20260901045947 | 78 | 53 | 0.0 | 1.0 | 0.00 | 0.00 | 0.00 | 66 | 1012.8 |
| 20260901045447 | 79 | 53 | 0.0 | 1.0 | 0.00 | 0.00 | 0.00 | 66 | 1012.9 |
| 20260901044948 | 79 | 53 | 0.0 | 2.0 | 0.00 | 0.00 | 0.00 | 66 | 1012.7 |
| 20260901044448 | 79 | 53 | 1.0 | 2.0 | 0.00 | 0.00 | 0.00 | 65 | 1012.8 |
| 20260901043947 | 79 | 53 | 1.0 | 1.0 | 0.00 | 0.00 | 0.00 | 64 | 1012.7 |
| 20260901043447 | 79 | 53 | 0.0 | 1.0 | 0.00 | 0.00 | 0.00 | 66 | 1012.8 |
| 20260901042948 | 79 | 53 | 0.0 | 1.0 | 0.00 | 0.00 | 0.00 | 65 | 1012.8 |
| 20260901042448 | 79 | 53 | 0.0 | 1.0 | 0.00 | 0.00 | 0.00 | 65 | 1012.8 |
| 20260901041948 | 79 | 53 | 0.0 | 1.0 | 0.00 | 0.00 | 0.00 | 63 | 1012.7 |
| 20260901041448 | 80 | 53 | 0.0 | 1.0 | 0.00 | 0.00 | 0.00 | 63 | 1012.9 |
| 20260901040447 | 80 | 53 | 0.0 | 1.0 | 0.00 | 0.00 | 0.00 | 62 | 1012.8 |
| 20260901035948 | 80 | 53 | 1.0 | 1.0 | 0.00 | 0.00 | 0.00 | 62 | 1012.8 |
| 20260901035448 | 80 | 53 | 0.0 | 1.0 | 0.00 | 0.00 | 0.00 | 61 | 1012.8 |
| 20260901034948 | 80 | 53 | 0.0 | 2.0 | 0.00 | 0.00 | 0.00 | 62 | 1012.8 |
| 20260901034448 | 81 | 53 | 1.0 | 2.0 | 0.00 | 0.00 | 0.00 | 61 | 1012.9 |
| 20260901033447 | 81 | 53 | 0.0 | 1.0 | 0.00 | 0.00 | 0.00 | 61 | 1012.8 |
| 20260901032948 | 81 | 53 | 0.0 | 1.0 | 0.00 | 0.00 | 0.00 | 60 | 1012.8 |
| 20260901032448 | 81 | 53 | 0.0 | 1.0 | 0.00 | 0.00 | 0.00 | 59 | 1012.7 |
| 20260901031448 | 82 | 53 | 0.0 | 1.0 | 0.00 | 0.00 | 0.00 | 59 | 1012.7 |
| 20260901030948 | 83 | 53 | 0.0 | 1.0 | 0.00 | 0.00 | 0.00 | 59 | 1012.7 |
| 20260901030449 | 83 | 53 | 0.0 | 1.0 | 0.00 | 0.00 | 0.00 | 59 | 1012.6 |
| 20260901025949 | 83 | 53 | 0.0 | 1.0 | 0.00 | 0.00 | 0.00 | 59 | 1012.7 |
| 20260901025448 | 84 | 53 | 0.0 | 1.0 | 0.00 | 0.00 | 0.00 | 58 | 1012.6 |
| 20260901024948 | 84 | 53 | 0.0 | 1.0 | 0.00 | 0.00 | 0.00 | 57 | 1012.5 |
| 20260901024449 | 85 | 53 | 0.0 | 1.0 | 0.00 | 0.00 | 0.00 | 55 | 1012.4 |
| 20260901023948 | 85 | 53 | 0.0 | 1.0 | 0.00 | 0.00 | 0.00 | 53 | 1012.3 |
| 20260901023449 | 85 | 53 | 0.0 | 2.0 | 0.00 | 0.00 | 0.00 | 53 | 1012.1 |
| 20260901022949 | 85 | 53 | 0.0 | 2.0 | 0.00 | 0.00 | 0.00 | 52 | 1012.2 |
| 20260901022448 | 86 | 53 | 0.0 | 1.0 | 0.00 | 0.00 | 0.00 | 52 | 1012.1 |
| 20260901021948 | 86 | 53 | 0.0 | 3.0 | 0.00 | 0.00 | 0.00 | 52 | 1012.1 |
| 20260901021449 | 87 | 34 | 1.0 | 3.0 | 0.00 | 0.00 | 0.00 | 52 | 1012.0 |
| 20260901020449 | 88 | 70 | 0.0 | 1.0 | 0.00 | 0.00 | 0.00 | 49 | 1011.9 |
| 20260901015949 | 88 | 69 | 0.0 | 1.0 | 0.00 | 0.00 | 0.00 | 48 | 1011.9 |
| 20260901015448 | 89 | 68 | 0.0 | 1.0 | 0.00 | 0.00 | 0.00 | 47 | 1011.8 |
| 20260901014948 | 89 | 68 | 0.0 | 1.0 | 0.00 | 0.00 | 0.00 | 48 | 1011.9 |
| 20260901014449 | 90 | 83 | 0.0 | 1.0 | 0.00 | 0.00 | 0.00 | 47 | 1011.7 |
| 20260901013949 | 90 | 83 | 0.0 | 1.0 | 0.00 | 0.00 | 0.00 | 46 | 1011.7 |
| 20260901013449 | 91 | 83 | 0.0 | 1.0 | 0.00 | 0.00 | 0.00 | 45 | 1011.6 |
| 20260901012948 | 91 | 84 | 0.0 | 2.0 | 0.00 | 0.00 | 0.00 | 45 | 1011.6 |
| 20260901012449 | 92 | 126 | 0.0 | 2.0 | 0.00 | 0.00 | 0.00 | 44 | 1011.5 |
| 20260901011949 | 92 | 113 | 0.0 | 5.0 | 0.00 | 0.00 | 0.00 | 44 | 1011.6 |
| 20260901010949 | 92 | 150 | 2.0 | 5.0 | 0.00 | 0.00 | 0.00 | 43 | 1011.5 |
| 20260901005949 | 93 | 159 | 1.0 | 3.0 | 0.00 | 0.00 | 0.00 | 42 | 1011.5 |
| 20260901004950 | 94 | 158 | 2.0 | 5.0 | 0.00 | 0.00 | 0.00 | 40 | 1011.5 |
| 20260901004449 | 95 | 149 | 3.0 | 5.0 | 0.00 | 0.00 | 0.00 | 39 | 1011.5 |
| 20260901003949 | 95 | 131 | 3.0 | 6.0 | 0.00 | 0.00 | 0.00 | 39 | 1011.5 |
| 20260901003449 | 95 | 139 | 3.0 | 7.0 | 0.00 | 0.00 | 0.00 | 38 | 1011.4 |
| 20260901002949 | 96 | 152 | 4.0 | 7.0 | 0.00 | 0.00 | 0.00 | 38 | 1011.5 |
| 20260901002451 | 96 | 166 | 4.0 | 7.0 | 0.00 | 0.00 | 0.00 | 37 | 1011.4 |
| 20260901001950 | 96 | 169 | 4.0 | 9.0 | 0.00 | 0.00 | 0.00 | 37 | 1011.5 |
| 20260901001449 | 97 | 169 | 5.0 | 10.0 | 0.00 | 0.00 | 0.00 | 36 | 1011.3 |
| 20260901000949 | 97 | 189 | 6.0 | 10.0 | 0.00 | 0.00 | 0.00 | 36 | 1011.4 |
| 20260901000450 | 97 | 173 | 5.0 | 10.0 | 0.00 | 0.00 | 0.00 | 36 | 1011.4 |
| 20260831235950 | 97 | 175 | 7.0 | 12.0 | 0.00 | 0.00 | 0.00 | 35 | 1011.5 |
| 20260831235449 | 97 | 184 | 8.0 | 12.0 | 0.00 | 0.00 | 0.00 | 35 | 1011.4 |
| 20260831234949 | 98 | 184 | 7.0 | 12.0 | 0.00 | 0.00 | 0.00 | 35 | 1011.4 |
| 20260831234450 | 98 | 186 | 9.0 | 14.0 | 0.00 | 0.00 | 0.00 | 35 | 1011.4 |
| 20260831233950 | 98 | 182 | 6.0 | 14.0 | 0.00 | 0.00 | 0.00 | 35 | 1011.5 |
| 20260831232949 | 98 | 178 | 6.0 | 14.0 | 0.00 | 0.00 | 0.00 | 35 | 1011.4 |
| 20260831232450 | 98 | 163 | 9.0 | 14.0 | 0.00 | 0.00 | 0.00 | 35 | 1011.4 |
| 20260831230950 | 99 | 156 | 8.0 | 12.0 | 0.00 | 0.00 | 0.00 | 34 | 1011.4 |
| 20260831230449 | 99 | 193 | 9.0 | 13.0 | 0.00 | 0.00 | 0.00 | 34 | 1011.5 |
| 20260831225951 | 98 | 166 | 8.0 | 14.0 | 0.00 | 0.00 | 0.00 | 34 | 1011.5 |
| 20260831225449 | 99 | 163 | 8.0 | 14.0 | 0.00 | 0.00 | 0.00 | 34 | 1011.6 |
| 20260831224950 | 99 | 190 | 9.0 | 14.0 | 0.00 | 0.00 | 0.00 | 34 | 1011.6 |
| 20260831224450 | 99 | 188 | 10.0 | 16.0 | 0.00 | 0.00 | 0.00 | 33 | 1011.5 |
| 20260831223950 | 99 | 211 | 9.0 | 16.0 | 0.00 | 0.00 | 0.00 | 34 | 1011.7 |
| 20260831223450 | 99 | 202 | 10.0 | 14.0 | 0.00 | 0.00 | 0.00 | 34 | 1011.6 |
| 20260831222950 | 99 | 188 | 7.0 | 17.0 | 0.00 | 0.00 | 0.00 | 35 | 1011.7 |
| 20260831222450 | 99 | 148 | 10.0 | 17.0 | 0.00 | 0.00 | 0.00 | 34 | 1011.7 |
| 20260831221949 | 99 | 182 | 9.0 | 17.0 | 0.00 | 0.00 | 0.00 | 34 | 1011.8 |
| 20260831221450 | 99 | 164 | 7.0 | 17.0 | 0.00 | 0.00 | 0.00 | 34 | 1011.9 |
| 20260831220950 | 99 | 174 | 9.0 | 16.0 | 0.00 | 0.00 | 0.00 | 34 | 1011.8 |
| 20260831220450 | 99 | 169 | 10.0 | 17.0 | 0.00 | 0.00 | 0.00 | 34 | 1011.9 |
| 20260831215950 | 99 | 189 | 12.0 | 17.0 | 0.00 | 0.00 | 0.00 | 34 | 1011.9 |
| 20260831215450 | 99 | 181 | 10.0 | 17.0 | 0.00 | 0.00 | 0.00 | 34 | 1012.0 |
| 20260831214950 | 99 | 150 | 9.0 | 18.0 | 0.00 | 0.00 | 0.00 | 34 | 1012.0 |
| 20260831214450 | 99 | 188 | 10.0 | 18.0 | 0.00 | 0.00 | 0.00 | 34 | 1012.1 |
| 20260831213950 | 99 | 151 | 10.0 | 18.0 | 0.00 | 0.00 | 0.00 | 35 | 1012.1 |
| 20260831213450 | 99 | 143 | 10.0 | 18.0 | 0.00 | 0.00 | 0.00 | 35 | 1012.1 |
| 20260831212950 | 99 | 170 | 10.0 | 20.0 | 0.00 | 0.00 | 0.00 | 35 | 1012.2 |
| 20260831212450 | 99 | 169 | 9.0 | 20.0 | 0.00 | 0.00 | 0.00 | 34 | 1012.3 |
| 20260831211951 | 99 | 193 | 12.0 | 18.0 | 0.00 | 0.00 | 0.00 | 34 | 1012.3 |
| 20260831211450 | 99 | 172 | 11.0 | 18.0 | 0.00 | 0.00 | 0.00 | 35 | 1012.3 |
| 20260831210950 | 99 | 152 | 9.0 | 18.0 | 0.00 | 0.00 | 0.00 | 35 | 1012.3 |
| 20260831210450 | 99 | 169 | 9.0 | 17.0 | 0.00 | 0.00 | 0.00 | 34 | 1012.4 |
| 20260831205951 | 99 | 199 | 8.0 | 18.0 | 0.00 | 0.00 | 0.00 | 34 | 1012.4 |
| 20260831205451 | 99 | 158 | 10.0 | 18.0 | 0.00 | 0.00 | 0.00 | 34 | 1012.7 |
| 20260831204953 | 99 | 215 | 8.0 | 17.0 | 0.00 | 0.00 | 0.00 | 34 | 1012.8 |